Regional Weather Roundup
Issued by NWS

Home | Current Version | Previous Version | Text Only | Print | Product List | Glossary Off
Versions: 1 2 3 4 5 6 7 8 9 10 11 12 13 14 15 16 17 18 19 20 21 22 23 24 25 26 27 28 29 30 31 32 33 34 35 36 37 38 39 40 41 42 43 44 45 46 47 48 49 50

000
ASUS43 KTOP 212308
RWRKS

WEATHER ROUNDUP FOR KANSAS
NATIONAL WEATHER SERVICE GOODLAND KS
600 PM CDT THU AUG 21 2014

NOTE:  "FAIR" INDICATES FEW OR NO CLOUDS BELOW 12,000 FEET WITH NO
SIGNIFICANT WEATHER AND/OR OBSTRUCTIONS TO VISIBILITY.

KSZ001>006-013>018-027>032-041>047-220000-
NORTHWEST KANSAS

CITY           SKY/WX    TMP DP  RH WIND       PRES   REMARKS
GOODLAND       SUNNY     93  47  20 VRB5      29.97S
HAYS           MOSUNNY   97  64  34 S23       29.81F HX  99
HILL CITY      SUNNY     98  62  30 N9        29.84F HX  99
RUSSELL        SUNNY     98  64  32 S18G29    29.79F HX 100
$$

KSZ061>065-074>080-084>089-220000-
SOUTHWEST KANSAS

CITY           SKY/WX    TMP DP  RH WIND       PRES   REMARKS
DODGE CITY     MOSUNNY   96  61  31 S13       29.85F HX  96
ELKHART          N/A     97  55  24 E2          N/A  HX  95
GARDEN CITY    SUNNY     96  59  29 VRB3      29.87S HX  95
GREAT BEND     SUNNY    100  64  30 S20G28    29.82S HX 103
LIBERAL        MOSUNNY   97  55  24 S13       29.89R HX  95
PRATT          SUNNY     97  59  28 S18G28    29.86S HX  96
$$

KSZ066>073-081>083-090>101-220000-
SOUTHEAST KANSAS

CITY           SKY/WX    TMP DP  RH WIND       PRES   REMARKS
CHANUTE        MOSUNNY   94  71  47 S17G25    29.91S HX 101
COFFEYVILLE    SUNNY     93  73  52 S20G25    29.91S HX 102
HUTCHINSON     SUNNY     99  65  32 S20G28    29.84S HX 102
MEDICINE LODGE   N/A     99  65  32 S20       29.82F HX 102
NEWTON         SUNNY     97  66  36 S20G29    29.90S HX 100
PARSONS        SUNNY     93  72  50 S9G21     29.93S HX 101
WICHITA INTL   MOSUNNY   97  67  37 S21G28    29.85S HX 101
WICHITA JABRA  SUNNY     94  69  44 S18G31    29.86F HX  99
WICHITA MCCONL SUNNY     94  69  42 SE17G28   29.87S HX  99
WINFIELD       SUNNY     96  67  38 S17G26    29.89S HX 100
$$

KSZ007>012-019>026-033>040-048>060-102>105-220000-
NORTHEAST KANSAS

CITY           SKY/WX    TMP DP  RH WIND       PRES   REMARKS
CONCORDIA      SUNNY     95  68  41 S10G22    29.80F HX  99
EMPORIA        SUNNY     95  69  42 S18G28    29.87S HX 100
LAWRENCE       MOSUNNY   96  70  42 S10       29.84S HX 102
MANHATTAN      SUNNY     99  68  36 S15G23    29.81S HX 104
MARYSVILLE     SUNNY     97  70  41 SW14G22   29.81F HX 103
OLATHE IND     MOSUNNY   95  70  44 S20G28    29.88S HX 101
OLATHE EXE     SUNNY     93  72  50 S10G20    29.87F HX 101
SALINA         SUNNY     99  66  33 S17G30    29.81S HX 103
TOPEKA BILLARD SUNNY     98  70  40 S14G23    29.83S HX 105
TOPEKA FORBES  SUNNY     98  68  37 S16G28    29.84S HX 103
$$



USA.gov is the U.S. government's official web portal to all federal, state and local government web resources and services.